User: anonymous
Location: Oshawa
(43.9000°N, 78.8670°W)
Time: 22:11:03
(UTC-04:00)
Language:

Iridium 54 - Orbit

View from above orbital plane
View from above orbital plane
View from above satellite
View from above satellite

Ground track
Ground track

The orbit data is extracted from the following two-line orbital elements,

1 25171U 98010C   14293.32868309  .00000735  00000-0  25536-3 0  9610
2 25171 086.4005 036.1882 0002249 110.8666 249.2771 14.34215398872777
Epoch (UTC): 20 October 2014 07:53:18
Eccentricity: 0.0002249
inclination: 86.4005°
perigee height: 776 km
apogee height: 779 km
right ascension of ascending node: 36.1882°
argument of perigee: 110.8666°
revolutions per day: 14.34215398
mean anomaly at epoch: 249.2771°
orbit number at epoch: 87277

The dashed part of the orbit path shows where the satellite is in the earth's shadow,  

DLR